Simultaneous Nadir Overpasses (SNOs) Predictions

Prediction of SNOs between GOES-14 and AQUA Satellite Orbit:

Table of predicted SNOs for the next 14.0 days since TLE Epoch: 8/29/2025
Index Date Time (GOES-14) GOES-14 Lat,Lon AQUA Lat,Lon Distance(km) Time Diff (sec)
1 08/31/2025 09:48:37 -0.88,-108.22 -1.62,-104.82 387.49 80
2 08/31/2025 22:10:31 0.84,-108.19 0.59,-109.46 143.69 80
3 09/02/2025 21:47:18 0.87,-108.21 1.71,-104.43 430.01 80
4 09/03/2025 10:09:01 -0.83,-108.25 -0.65,-109.03 89.33 80
5 09/05/2025 09:45:47 -0.87,-108.26 -1.76,-103.99 484.10 80
6 09/05/2025 22:07:41 0.82,-108.22 0.76,-108.64 47.38 80
7 09/08/2025 10:03:30 -0.81,-108.28 -0.82,-108.20 8.75 80
8 09/10/2025 22:02:07 0.79,-108.25 0.88,-107.79 51.37 80
9 09/11/2025 10:23:51 -0.73,-108.30 0.15,-112.39 465.95 80
